owner,sensor,date,latitude,longitude,air_pressure(mBar),qcFlag 
FIT,ioos:station:wmo:SIPF1:1,2019-11-01T00:30:00Z,27.8620,-80.4450,1017.0,11111222 
FIT,ioos:station:wmo:SIPF1:1,2019-11-01T00:45:00Z,27.8620,-80.4450,1016.0,11111222 
FIT,ioos:station:wmo:SIPF1:1,2019-11-02T15:45:00Z,27.8620,-80.4450,1019.0,11111222 
FIT,ioos:station:wmo:SIPF1:1,2019-11-02T16:30:00Z,27.8620,-80.4450,1018.0,11111222 
FIT,ioos:station:wmo:SIPF1:1,2019-11-02T17:30:00Z,27.8620,-80.4450,1018.0,11111222 
FIT,ioos:station:wmo:SIPF1:1,2019-11-02T18:30:00Z,27.8620,-80.4450,1017.0,11111222 
FIT,ioos:station:wmo:SIPF1:1,2019-11-02T19:30:00Z,27.8620,-80.4450,1016.0,11111222 
FIT,ioos:station:wmo:SIPF1:1,2019-11-02T20:30:00Z,27.8620,-80.4450,1016.0,11111222 
FIT,ioos:station:wmo:SIPF1:1,2019-11-02T21:30:00Z,27.8620,-80.4450,1016.0,11111222 
FIT,ioos:station:wmo:SIPF1:1,2019-11-02T22:30:00Z,27.8620,-80.4450,1017.0,11111222 
FIT,ioos:station:wmo:SIPF1:1,2019-11-02T23:30:00Z,27.8620,-80.4450,1017.0,11111222 
FIT,ioos:station:wmo:SIPF1:1,2019-11-03T00:30:00Z,27.8620,-80.4450,1017.0,11111222 
FIT,ioos:station:wmo:SIPF1:1,2019-11-03T01:30:00Z,27.8620,-80.4450,1017.0,11111222 
FIT,ioos:station:wmo:SIPF1:1,2019-11-03T02:30:00Z,27.8620,-80.4450,1018.0,11111222 
FIT,ioos:station:wmo:SIPF1:1,2019-11-03T03:30:00Z,27.8620,-80.4450,1018.0,11111222 
FIT,ioos:station:wmo:SIPF1:1,2019-11-03T04:30:00Z,27.8620,-80.4450,1017.0,11111222 
FIT,ioos:station:wmo:SIPF1:1,2019-11-03T05:30:00Z,27.8620,-80.4450,1017.0,11111222 
FIT,ioos:station:wmo:SIPF1:1,2019-11-03T06:30:00Z,27.8620,-80.4450,1017.0,11111222 
FIT,ioos:station:wmo:SIPF1:1,2019-11-03T07:30:00Z,27.8620,-80.4450,1016.0,11111222 
FIT,ioos:station:wmo:SIPF1:1,2019-11-03T08:30:00Z,27.8620,-80.4450,1016.0,11111222 
FIT,ioos:station:wmo:SIPF1:1,2019-11-03T09:30:00Z,27.8620,-80.4450,1016.0,11111222 
FIT,ioos:station:wmo:SIPF1:1,2019-11-03T10:30:00Z,27.8620,-80.4450,1017.0,11111222 
FIT,ioos:station:wmo:SIPF1:1,2019-11-03T11:30:00Z,27.8620,-80.4450,1016.0,11111222 
FIT,ioos:station:wmo:SIPF1:1,2019-11-05T16:30:00Z,27.8620,-80.4450,1022.0,11111222 
FIT,ioos:station:wmo:SIPF1:1,2019-11-05T17:45:00Z,27.8620,-80.4450,1020.0,11111222 
FIT,ioos:station:wmo:SIPF1:1,2019-11-05T18:30:00Z,27.8620,-80.4450,1020.0,11111222 
FIT,ioos:station:wmo:SIPF1:1,2019-11-05T19:45:00Z,27.8620,-80.4450,1019.0,11111222 
FIT,ioos:station:wmo:SIPF1:1,2019-11-05T20:30:00Z,27.8620,-80.4450,1019.0,11111222 
FIT,ioos:station:wmo:SIPF1:1,2019-11-05T21:30:00Z,27.8620,-80.4450,1020.0,11111222 
FIT,ioos:station:wmo:SIPF1:1,2019-11-05T22:30:00Z,27.8620,-80.4450,1020.0,11111222 
FIT,ioos:station:wmo:SIPF1:1,2019-11-05T23:30:00Z,27.8620,-80.4450,1020.0,11111222 
FIT,ioos:station:wmo:SIPF1:1,2019-11-06T00:30:00Z,27.8620,-80.4450,1020.0,11111222 
FIT,ioos:station:wmo:SIPF1:1,2019-11-06T01:30:00Z,27.8620,-80.4450,1021.0,11111222 
FIT,ioos:station:wmo:SIPF1:1,2019-11-06T02:30:00Z,27.8620,-80.4450,1022.0,11111222 
FIT,ioos:station:wmo:SIPF1:1,2019-11-06T03:30:00Z,27.8620,-80.4450,1021.0,11111222 
FIT,ioos:station:wmo:SIPF1:1,2019-11-06T04:30:00Z,27.8620,-80.4450,1021.0,11111222 
FIT,ioos:station:wmo:SIPF1:1,2019-11-06T05:30:00Z,27.8620,-80.4450,1021.0,11111222 
FIT,ioos:station:wmo:SIPF1:1,2019-11-06T06:30:00Z,27.8620,-80.4450,1021.0,11111222 
FIT,ioos:station:wmo:SIPF1:1,2019-11-06T07:30:00Z,27.8620,-80.4450,1021.0,11111222 
FIT,ioos:station:wmo:SIPF1:1,2019-11-06T08:30:00Z,27.8620,-80.4450,1021.0,11111222 
FIT,ioos:station:wmo:SIPF1:1,2019-11-06T08:45:00Z,27.8620,-80.4450,1021.0,11111222 
FIT,ioos:station:wmo:SIPF1:1,2019-11-06T15:45:00Z,27.8620,-80.4450,1024.0,11111222 
FIT,ioos:station:wmo:SIPF1:1,2019-11-06T16:30:00Z,27.8620,-80.4450,1023.0,11111222 
FIT,ioos:station:wmo:SIPF1:1,2019-11-06T17:45:00Z,27.8620,-80.4450,1022.0,11111222 
FIT,ioos:station:wmo:SIPF1:1,2019-11-06T18:30:00Z,27.8620,-80.4450,1022.0,11111222 
FIT,ioos:station:wmo:SIPF1:1,2019-11-06T19:30:00Z,27.8620,-80.4450,1021.0,11111222 
FIT,ioos:station:wmo:SIPF1:1,2019-11-06T20:30:00Z,27.8620,-80.4450,1021.0,11111222 
FIT,ioos:station:wmo:SIPF1:1,2019-11-06T21:30:00Z,27.8620,-80.4450,1021.0,11111222 
FIT,ioos:station:wmo:SIPF1:1,2019-11-06T22:30:00Z,27.8620,-80.4450,1022.0,11111222 
FIT,ioos:station:wmo:SIPF1:1,2019-11-06T23:30:00Z,27.8620,-80.4450,1022.0,11111222 
FIT,ioos:station:wmo:SIPF1:1,2019-11-07T00:30:00Z,27.8620,-80.4450,1022.0,11111222 
FIT,ioos:station:wmo:SIPF1:1,2019-11-07T01:30:00Z,27.8620,-80.4450,1022.0,11111222 
FIT,ioos:station:wmo:SIPF1:1,2019-11-07T02:30:00Z,27.8620,-80.4450,1022.0,11111222 
FIT,ioos:station:wmo:SIPF1:1,2019-11-07T03:30:00Z,27.8620,-80.4450,1022.0,11111222 
FIT,ioos:station:wmo:SIPF1:1,2019-11-07T04:30:00Z,27.8620,-80.4450,1022.0,11111222 
FIT,ioos:station:wmo:SIPF1:1,2019-11-07T05:30:00Z,27.8620,-80.4450,1022.0,11111222 
FIT,ioos:station:wmo:SIPF1:1,2019-11-07T06:30:00Z,27.8620,-80.4450,1020.0,11111222 
FIT,ioos:station:wmo:SIPF1:1,2019-11-07T19:45:00Z,27.8620,-80.4450,1019.0,11111222 
FIT,ioos:station:wmo:SIPF1:1,2019-11-07T20:45:00Z,27.8620,-80.4450,1018.0,11111222 
FIT,ioos:station:wmo:SIPF1:1,2019-11-07T21:30:00Z,27.8620,-80.4450,1018.0,11111222 
FIT,ioos:station:wmo:SIPF1:1,2019-11-07T22:30:00Z,27.8620,-80.4450,1018.0,11111222 
FIT,ioos:station:wmo:SIPF1:1,2019-11-07T23:30:00Z,27.8620,-80.4450,1019.0,11111222 
FIT,ioos:station:wmo:SIPF1:1,2019-11-08T00:30:00Z,27.8620,-80.4450,1018.0,11111222 
FIT,ioos:station:wmo:SIPF1:1,2019-11-08T01:30:00Z,27.8620,-80.4450,1019.0,11111222 
FIT,ioos:station:wmo:SIPF1:1,2019-11-08T02:30:00Z,27.8620,-80.4450,1019.0,11111222 
FIT,ioos:station:wmo:SIPF1:1,2019-11-08T03:30:00Z,27.8620,-80.4450,1019.0,11111222 
FIT,ioos:station:wmo:SIPF1:1,2019-11-08T04:30:00Z,27.8620,-80.4450,1018.0,11111222 
FIT,ioos:station:wmo:SIPF1:1,2019-11-08T05:30:00Z,27.8620,-80.4450,1018.0,11111222 
FIT,ioos:station:wmo:SIPF1:1,2019-11-08T06:30:00Z,27.8620,-80.4450,1017.0,11111222 
FIT,ioos:station:wmo:SIPF1:1,2019-11-08T07:30:00Z,27.8620,-80.4450,1017.0,11111222 
FIT,ioos:station:wmo:SIPF1:1,2019-11-08T08:30:00Z,27.8620,-80.4450,1016.0,11111222 
FIT,ioos:station:wmo:SIPF1:1,2019-11-08T09:30:00Z,27.8620,-80.4450,1016.0,11111222 
FIT,ioos:station:wmo:SIPF1:1,2019-11-08T10:30:00Z,27.8620,-80.4450,1015.0,11111222 
FIT,ioos:station:wmo:SIPF1:1,2019-11-08T13:30:00Z,27.8620,-80.4450,1017.0,11111222 
FIT,ioos:station:wmo:SIPF1:1,2019-11-08T14:30:00Z,27.8620,-80.4450,1017.0,11111222 
FIT,ioos:station:wmo:SIPF1:1,2019-11-08T15:45:00Z,27.8620,-80.4450,1017.0,11111222 
FIT,ioos:station:wmo:SIPF1:1,2019-11-08T16:30:00Z,27.8620,-80.4450,1016.0,11111222 
FIT,ioos:station:wmo:SIPF1:1,2019-11-08T17:30:00Z,27.8620,-80.4450,1015.0,11111222 
FIT,ioos:station:wmo:SIPF1:1,2019-11-08T18:30:00Z,27.8620,-80.4450,1014.0,11111222 
FIT,ioos:station:wmo:SIPF1:1,2019-11-08T19:30:00Z,27.8620,-80.4450,1014.0,11111222 
FIT,ioos:station:wmo:SIPF1:1,2019-11-08T20:30:00Z,27.8620,-80.4450,1014.0,11111222 
FIT,ioos:station:wmo:SIPF1:1,2019-11-08T21:30:00Z,27.8620,-80.4450,1014.0,11111222 
FIT,ioos:station:wmo:SIPF1:1,2019-11-08T22:30:00Z,27.8620,-80.4450,1014.0,11111222 
FIT,ioos:station:wmo:SIPF1:1,2019-11-08T23:15:00Z,27.8620,-80.4450,1014.0,11111222 
FIT,ioos:station:wmo:SIPF1:1,2019-11-10T15:30:00Z,27.8620,-80.4450,1022.0,11111222 
FIT,ioos:station:wmo:SIPF1:1,2019-11-10T16:30:00Z,27.8620,-80.4450,1022.0,11111222 
FIT,ioos:station:wmo:SIPF1:1,2019-11-10T17:30:00Z,27.8620,-80.4450,1021.0,11111222 
FIT,ioos:station:wmo:SIPF1:1,2019-11-10T18:30:00Z,27.8620,-80.4450,1020.0,11111222 
FIT,ioos:station:wmo:SIPF1:1,2019-11-10T19:30:00Z,27.8620,-80.4450,1020.0,11111222 
FIT,ioos:station:wmo:SIPF1:1,2019-11-10T20:30:00Z,27.8620,-80.4450,1020.0,11111222 
FIT,ioos:station:wmo:SIPF1:1,2019-11-10T21:30:00Z,27.8620,-80.4450,1020.0,11111222 
FIT,ioos:station:wmo:SIPF1:1,2019-11-10T22:30:00Z,27.8620,-80.4450,1020.0,11111222 
FIT,ioos:station:wmo:SIPF1:1,2019-11-10T23:30:00Z,27.8620,-80.4450,1020.0,11111222 
FIT,ioos:station:wmo:SIPF1:1,2019-11-11T00:30:00Z,27.8620,-80.4450,1020.0,11111222 
FIT,ioos:station:wmo:SIPF1:1,2019-11-11T01:30:00Z,27.8620,-80.4450,1020.0,11111222 
FIT,ioos:station:wmo:SIPF1:1,2019-11-11T02:30:00Z,27.8620,-80.4450,1021.0,11111222 
FIT,ioos:station:wmo:SIPF1:1,2019-11-11T03:30:00Z,27.8620,-80.4450,1021.0,11111222 
FIT,ioos:station:wmo:SIPF1:1,2019-11-11T04:30:00Z,27.8620,-80.4450,1021.0,11111222 
FIT,ioos:station:wmo:SIPF1:1,2019-11-11T05:30:00Z,27.8620,-80.4450,1020.0,11111222 
FIT,ioos:station:wmo:SIPF1:1,2019-11-11T06:30:00Z,27.8620,-80.4450,1021.0,11111222 
FIT,ioos:station:wmo:SIPF1:1,2019-11-11T07:30:00Z,27.8620,-80.4450,1020.0,11111222 
FIT,ioos:station:wmo:SIPF1:1,2019-11-11T08:30:00Z,27.8620,-80.4450,1020.0,11111222 
FIT,ioos:station:wmo:SIPF1:1,2019-11-11T09:30:00Z,27.8620,-80.4450,1020.0,11111222 
FIT,ioos:station:wmo:SIPF1:1,2019-11-11T10:30:00Z,27.8620,-80.4450,1020.0,11111222 
FIT,ioos:station:wmo:SIPF1:1,2019-11-11T11:30:00Z,27.8620,-80.4450,1021.0,11111222 
FIT,ioos:station:wmo:SIPF1:1,2019-11-11T12:30:00Z,27.8620,-80.4450,1021.0,11111222 
FIT,ioos:station:wmo:SIPF1:1,2019-11-11T13:30:00Z,27.8620,-80.4450,1021.0,11111222 
FIT,ioos:station:wmo:SIPF1:1,2019-11-11T14:30:00Z,27.8620,-80.4450,1021.0,11111222 
FIT,ioos:station:wmo:SIPF1:1,2019-11-11T15:45:00Z,27.8620,-80.4450,1021.0,11111222 
FIT,ioos:station:wmo:SIPF1:1,2019-11-11T16:30:00Z,27.8620,-80.4450,1021.0,11111222 
FIT,ioos:station:wmo:SIPF1:1,2019-11-11T17:30:00Z,27.8620,-80.4450,1020.0,11111222 
FIT,ioos:station:wmo:SIPF1:1,2019-11-11T18:30:00Z,27.8620,-80.4450,1019.0,11111222 
FIT,ioos:station:wmo:SIPF1:1,2019-11-11T19:30:00Z,27.8620,-80.4450,1018.0,11111222 
FIT,ioos:station:wmo:SIPF1:1,2019-11-11T20:30:00Z,27.8620,-80.4450,1019.0,11111222 
FIT,ioos:station:wmo:SIPF1:1,2019-11-11T21:30:00Z,27.8620,-80.4450,1018.0,11111222 
FIT,ioos:station:wmo:SIPF1:1,2019-11-11T22:30:00Z,27.8620,-80.4450,1018.0,11111222 
FIT,ioos:station:wmo:SIPF1:1,2019-11-11T23:30:00Z,27.8620,-80.4450,1018.0,11111222 
FIT,ioos:station:wmo:SIPF1:1,2019-11-12T00:30:00Z,27.8620,-80.4450,1019.0,11111222 
FIT,ioos:station:wmo:SIPF1:1,2019-11-12T01:30:00Z,27.8620,-80.4450,1018.0,11111222 
FIT,ioos:station:wmo:SIPF1:1,2019-11-12T02:30:00Z,27.8620,-80.4450,1018.0,11111222 
FIT,ioos:station:wmo:SIPF1:1,2019-11-13T14:45:00Z,27.8620,-80.4450,1019.0,11111222 
FIT,ioos:station:wmo:SIPF1:1,2019-11-13T15:45:00Z,27.8620,-80.4450,1019.0,11111222 
FIT,ioos:station:wmo:SIPF1:1,2019-11-13T16:45:00Z,27.8620,-80.4450,1020.0,11111222 
FIT,ioos:station:wmo:SIPF1:1,2019-11-13T17:45:00Z,27.8620,-80.4450,1018.0,11111222 
FIT,ioos:station:wmo:SIPF1:1,2019-11-13T18:45:00Z,27.8620,-80.4450,1019.0,11111222 
FIT,ioos:station:wmo:SIPF1:1,2019-11-13T19:45:00Z,27.8620,-80.4450,1018.0,11111222 
FIT,ioos:station:wmo:SIPF1:1,2019-11-13T20:45:00Z,27.8620,-80.4450,1018.0,11111222 
FIT,ioos:station:wmo:SIPF1:1,2019-11-13T21:45:00Z,27.8620,-80.4450,1018.0,11111222 
FIT,ioos:station:wmo:SIPF1:1,2019-11-13T22:45:00Z,27.8620,-80.4450,1019.0,11111222 
FIT,ioos:station:wmo:SIPF1:1,2019-11-13T23:45:00Z,27.8620,-80.4450,1019.0,11111222 
FIT,ioos:station:wmo:SIPF1:1,2019-11-14T00:45:00Z,27.8620,-80.4450,1019.0,11111222 
FIT,ioos:station:wmo:SIPF1:1,2019-11-14T01:45:00Z,27.8620,-80.4450,1020.0,11111222 
FIT,ioos:station:wmo:SIPF1:1,2019-11-14T02:45:00Z,27.8620,-80.4450,1020.0,11111222 
FIT,ioos:station:wmo:SIPF1:1,2019-11-14T03:45:00Z,27.8620,-80.4450,1020.0,11111222 
FIT,ioos:station:wmo:SIPF1:1,2019-11-14T04:45:00Z,27.8620,-80.4450,1020.0,11111222 
FIT,ioos:station:wmo:SIPF1:1,2019-11-14T05:45:00Z,27.8620,-80.4450,1019.0,11111222 
FIT,ioos:station:wmo:SIPF1:1,2019-11-14T06:15:00Z,27.8620,-80.4450,1018.0,11111222 
FIT,ioos:station:wmo:SIPF1:1,2019-11-16T13:30:00Z,27.8620,-80.4450,1013.0,11111222 
FIT,ioos:station:wmo:SIPF1:1,2019-11-16T14:30:00Z,27.8620,-80.4450,1013.0,11111222 
FIT,ioos:station:wmo:SIPF1:1,2019-11-16T15:30:00Z,27.8620,-80.4450,1013.0,11111222 
FIT,ioos:station:wmo:SIPF1:1,2019-11-16T16:30:00Z,27.8620,-80.4450,1012.0,11111222 
FIT,ioos:station:wmo:SIPF1:1,2019-11-16T17:30:00Z,27.8620,-80.4450,1012.0,11111222 
FIT,ioos:station:wmo:SIPF1:1,2019-11-16T18:30:00Z,27.8620,-80.4450,1012.0,11111222 
FIT,ioos:station:wmo:SIPF1:1,2019-11-16T19:30:00Z,27.8620,-80.4450,1011.0,11111222 
FIT,ioos:station:wmo:SIPF1:1,2019-11-16T20:30:00Z,27.8620,-80.4450,1011.0,11111222 
FIT,ioos:station:wmo:SIPF1:1,2019-11-16T21:30:00Z,27.8620,-80.4450,1011.0,11111222 
FIT,ioos:station:wmo:SIPF1:1,2019-11-16T22:30:00Z,27.8620,-80.4450,1011.0,11111222 
FIT,ioos:station:wmo:SIPF1:1,2019-11-16T23:30:00Z,27.8620,-80.4450,1012.0,11111222 
FIT,ioos:station:wmo:SIPF1:1,2019-11-17T00:30:00Z,27.8620,-80.4450,1013.0,11111222 
FIT,ioos:station:wmo:SIPF1:1,2019-11-17T01:30:00Z,27.8620,-80.4450,1014.0,11111222 
FIT,ioos:station:wmo:SIPF1:1,2019-11-17T02:30:00Z,27.8620,-80.4450,1014.0,11111222 
FIT,ioos:station:wmo:SIPF1:1,2019-11-17T03:30:00Z,27.8620,-80.4450,1014.0,11111222 
FIT,ioos:station:wmo:SIPF1:1,2019-11-17T04:30:00Z,27.8620,-80.4450,1014.0,11111222 
FIT,ioos:station:wmo:SIPF1:1,2019-11-17T05:30:00Z,27.8620,-80.4450,1013.0,11111222 
FIT,ioos:station:wmo:SIPF1:1,2019-11-17T06:30:00Z,27.8620,-80.4450,1012.0,11111222 
FIT,ioos:station:wmo:SIPF1:1,2019-11-17T07:00:00Z,27.8620,-80.4450,1011.0,11111222 
FIT,ioos:station:wmo:SIPF1:1,2019-11-18T16:45:00Z,27.8620,-80.4450,1012.0,11111222 
FIT,ioos:station:wmo:SIPF1:1,2019-11-18T17:45:00Z,27.8620,-80.4450,1011.0,11111222 
FIT,ioos:station:wmo:SIPF1:1,2019-11-18T18:45:00Z,27.8620,-80.4450,1010.0,11111222 
FIT,ioos:station:wmo:SIPF1:1,2019-11-18T19:45:00Z,27.8620,-80.4450,1010.0,11111222 
FIT,ioos:station:wmo:SIPF1:1,2019-11-18T20:45:00Z,27.8620,-80.4450,1010.0,11111222 
FIT,ioos:station:wmo:SIPF1:1,2019-11-18T21:30:00Z,27.8620,-80.4450,1010.0,11111222 
FIT,ioos:station:wmo:SIPF1:1,2019-11-18T22:30:00Z,27.8620,-80.4450,1010.0,11111222 
FIT,ioos:station:wmo:SIPF1:1,2019-11-18T23:30:00Z,27.8620,-80.4450,1011.0,11111222 
FIT,ioos:station:wmo:SIPF1:1,2019-11-19T00:30:00Z,27.8620,-80.4450,1012.0,11111222 
FIT,ioos:station:wmo:SIPF1:1,2019-11-19T01:30:00Z,27.8620,-80.4450,1012.0,11111222 
FIT,ioos:station:wmo:SIPF1:1,2019-11-19T02:30:00Z,27.8620,-80.4450,1012.0,11111222 
FIT,ioos:station:wmo:SIPF1:1,2019-11-19T03:30:00Z,27.8620,-80.4450,1012.0,11111222 
FIT,ioos:station:wmo:SIPF1:1,2019-11-19T04:30:00Z,27.8620,-80.4450,1012.0,11111222 
FIT,ioos:station:wmo:SIPF1:1,2019-11-19T05:30:00Z,27.8620,-80.4450,1013.0,11111222 
FIT,ioos:station:wmo:SIPF1:1,2019-11-19T06:30:00Z,27.8620,-80.4450,1013.0,11111222 
FIT,ioos:station:wmo:SIPF1:1,2019-11-19T07:30:00Z,27.8620,-80.4450,1011.0,11111222 
FIT,ioos:station:wmo:SIPF1:1,2019-11-19T16:30:00Z,27.8620,-80.4450,1015.0,11111222 
FIT,ioos:station:wmo:SIPF1:1,2019-11-19T17:45:00Z,27.8620,-80.4450,1014.0,11111222 
FIT,ioos:station:wmo:SIPF1:1,2019-11-19T18:45:00Z,27.8620,-80.4450,1014.0,11111222 
FIT,ioos:station:wmo:SIPF1:1,2019-11-19T19:45:00Z,27.8620,-80.4450,1013.0,11111222 
FIT,ioos:station:wmo:SIPF1:1,2019-11-19T20:45:00Z,27.8620,-80.4450,1014.0,11111222 
FIT,ioos:station:wmo:SIPF1:1,2019-11-19T21:30:00Z,27.8620,-80.4450,1015.0,11111222 
FIT,ioos:station:wmo:SIPF1:1,2019-11-19T22:30:00Z,27.8620,-80.4450,1016.0,11111222 
FIT,ioos:station:wmo:SIPF1:1,2019-11-19T23:30:00Z,27.8620,-80.4450,1016.0,11111222 
FIT,ioos:station:wmo:SIPF1:1,2019-11-20T00:30:00Z,27.8620,-80.4450,1017.0,11111222 
FIT,ioos:station:wmo:SIPF1:1,2019-11-20T01:30:00Z,27.8620,-80.4450,1017.0,11111222 
FIT,ioos:station:wmo:SIPF1:1,2019-11-20T02:30:00Z,27.8620,-80.4450,1018.0,11111222 
FIT,ioos:station:wmo:SIPF1:1,2019-11-20T03:30:00Z,27.8620,-80.4450,1018.0,11111222 
FIT,ioos:station:wmo:SIPF1:1,2019-11-20T04:30:00Z,27.8620,-80.4450,1018.0,11111222 
FIT,ioos:station:wmo:SIPF1:1,2019-11-20T05:30:00Z,27.8620,-80.4450,1018.0,11111222 
FIT,ioos:station:wmo:SIPF1:1,2019-11-20T06:30:00Z,27.8620,-80.4450,1018.0,11111222 
FIT,ioos:station:wmo:SIPF1:1,2019-11-20T07:30:00Z,27.8620,-80.4450,1018.0,11111222 
FIT,ioos:station:wmo:SIPF1:1,2019-11-20T08:30:00Z,27.8620,-80.4450,1018.0,11111222 
FIT,ioos:station:wmo:SIPF1:1,2019-11-20T09:30:00Z,27.8620,-80.4450,1018.0,11111222 
FIT,ioos:station:wmo:SIPF1:1,2019-11-20T10:30:00Z,27.8620,-80.4450,1019.0,11111222 
FIT,ioos:station:wmo:SIPF1:1,2019-11-20T11:30:00Z,27.8620,-80.4450,1020.0,11111222 
FIT,ioos:station:wmo:SIPF1:1,2019-11-20T12:30:00Z,27.8620,-80.4450,1021.0,11111222 
FIT,ioos:station:wmo:SIPF1:1,2019-11-20T13:30:00Z,27.8620,-80.4450,1021.0,11111222 
FIT,ioos:station:wmo:SIPF1:1,2019-11-20T14:45:00Z,27.8620,-80.4450,1021.0,11111222 
FIT,ioos:station:wmo:SIPF1:1,2019-11-20T15:45:00Z,27.8620,-80.4450,1022.0,11111222 
FIT,ioos:station:wmo:SIPF1:1,2019-11-20T16:30:00Z,27.8620,-80.4450,1021.0,11111222 
FIT,ioos:station:wmo:SIPF1:1,2019-11-20T17:30:00Z,27.8620,-80.4450,1021.0,11111222 
FIT,ioos:station:wmo:SIPF1:1,2019-11-20T18:30:00Z,27.8620,-80.4450,1020.0,11111222 
FIT,ioos:station:wmo:SIPF1:1,2019-11-20T19:45:00Z,27.8620,-80.4450,1020.0,11111222 
FIT,ioos:station:wmo:SIPF1:1,2019-11-20T20:45:00Z,27.8620,-80.4450,1020.0,11111222 
FIT,ioos:station:wmo:SIPF1:1,2019-11-20T21:30:00Z,27.8620,-80.4450,1020.0,11111222 
FIT,ioos:station:wmo:SIPF1:1,2019-11-20T22:30:00Z,27.8620,-80.4450,1020.0,11111222 
FIT,ioos:station:wmo:SIPF1:1,2019-11-20T23:30:00Z,27.8620,-80.4450,1021.0,11111222 
FIT,ioos:station:wmo:SIPF1:1,2019-11-21T00:30:00Z,27.8620,-80.4450,1021.0,11111222 
FIT,ioos:station:wmo:SIPF1:1,2019-11-21T01:30:00Z,27.8620,-80.4450,1022.0,11111222 
FIT,ioos:station:wmo:SIPF1:1,2019-11-21T02:30:00Z,27.8620,-80.4450,1022.0,11111222 
FIT,ioos:station:wmo:SIPF1:1,2019-11-21T03:30:00Z,27.8620,-80.4450,1022.0,11111222 
FIT,ioos:station:wmo:SIPF1:1,2019-11-21T04:30:00Z,27.8620,-80.4450,1022.0,11111222 
FIT,ioos:station:wmo:SIPF1:1,2019-11-21T05:30:00Z,27.8620,-80.4450,1022.0,11111222 
FIT,ioos:station:wmo:SIPF1:1,2019-11-21T06:30:00Z,27.8620,-80.4450,1021.0,11111222 
FIT,ioos:station:wmo:SIPF1:1,2019-11-21T07:30:00Z,27.8620,-80.4450,1021.0,11111222 
FIT,ioos:station:wmo:SIPF1:1,2019-11-21T08:30:00Z,27.8620,-80.4450,1021.0,11111222 
FIT,ioos:station:wmo:SIPF1:1,2019-11-21T09:30:00Z,27.8620,-80.4450,1021.0,11111222 
FIT,ioos:station:wmo:SIPF1:1,2019-11-21T10:30:00Z,27.8620,-80.4450,1022.0,11111222 
FIT,ioos:station:wmo:SIPF1:1,2019-11-21T11:30:00Z,27.8620,-80.4450,1022.0,11111222 
FIT,ioos:station:wmo:SIPF1:1,2019-11-21T12:30:00Z,27.8620,-80.4450,1023.0,11111222 
FIT,ioos:station:wmo:SIPF1:1,2019-11-21T12:45:00Z,27.8620,-80.4450,1023.0,11111222 
FIT,ioos:station:wmo:SIPF1:1,2019-11-21T14:45:00Z,27.8620,-80.4450,1024.0,11111222 
FIT,ioos:station:wmo:SIPF1:1,2019-11-21T15:45:00Z,27.8620,-80.4450,1024.0,11111222 
FIT,ioos:station:wmo:SIPF1:1,2019-11-21T16:45:00Z,27.8620,-80.4450,1023.0,11111222 
FIT,ioos:station:wmo:SIPF1:1,2019-11-21T17:30:00Z,27.8620,-80.4450,1023.0,11111222 
FIT,ioos:station:wmo:SIPF1:1,2019-11-21T18:45:00Z,27.8620,-80.4450,1022.0,11111222 
FIT,ioos:station:wmo:SIPF1:1,2019-11-21T19:45:00Z,27.8620,-80.4450,1021.0,11111222 
FIT,ioos:station:wmo:SIPF1:1,2019-11-21T20:30:00Z,27.8620,-80.4450,1021.0,11111222 
FIT,ioos:station:wmo:SIPF1:1,2019-11-21T21:30:00Z,27.8620,-80.4450,1022.0,11111222 
FIT,ioos:station:wmo:SIPF1:1,2019-11-21T22:30:00Z,27.8620,-80.4450,1022.0,11111222 
FIT,ioos:station:wmo:SIPF1:1,2019-11-21T23:30:00Z,27.8620,-80.4450,1022.0,11111222 
FIT,ioos:station:wmo:SIPF1:1,2019-11-22T00:30:00Z,27.8620,-80.4450,1022.0,11111222 
FIT,ioos:station:wmo:SIPF1:1,2019-11-22T01:30:00Z,27.8620,-80.4450,1022.0,11111222 
FIT,ioos:station:wmo:SIPF1:1,2019-11-22T02:30:00Z,27.8620,-80.4450,1023.0,11111222 
FIT,ioos:station:wmo:SIPF1:1,2019-11-22T03:30:00Z,27.8620,-80.4450,1022.0,11111222 
FIT,ioos:station:wmo:SIPF1:1,2019-11-22T04:30:00Z,27.8620,-80.4450,1022.0,11111222 
FIT,ioos:station:wmo:SIPF1:1,2019-11-22T05:30:00Z,27.8620,-80.4450,1021.0,11111222 
FIT,ioos:station:wmo:SIPF1:1,2019-11-22T06:30:00Z,27.8620,-80.4450,1021.0,11111222 
FIT,ioos:station:wmo:SIPF1:1,2019-11-22T07:30:00Z,27.8620,-80.4450,1020.0,11111222 
FIT,ioos:station:wmo:SIPF1:1,2019-11-22T08:30:00Z,27.8620,-80.4450,1020.0,11111222 
FIT,ioos:station:wmo:SIPF1:1,2019-11-22T09:30:00Z,27.8620,-80.4450,1020.0,11111222 
FIT,ioos:station:wmo:SIPF1:1,2019-11-22T10:30:00Z,27.8620,-80.4450,1020.0,11111222 
FIT,ioos:station:wmo:SIPF1:1,2019-11-22T11:30:00Z,27.8620,-80.4450,1021.0,11111222 
FIT,ioos:station:wmo:SIPF1:1,2019-11-22T12:30:00Z,27.8620,-80.4450,1021.0,11111222 
FIT,ioos:station:wmo:SIPF1:1,2019-11-22T13:30:00Z,27.8620,-80.4450,1021.0,11111222 
FIT,ioos:station:wmo:SIPF1:1,2019-11-22T14:30:00Z,27.8620,-80.4450,1022.0,11111222 
FIT,ioos:station:wmo:SIPF1:1,2019-11-22T15:45:00Z,27.8620,-80.4450,1022.0,11111222 
FIT,ioos:station:wmo:SIPF1:1,2019-11-22T16:30:00Z,27.8620,-80.4450,1021.0,11111222 
FIT,ioos:station:wmo:SIPF1:1,2019-11-22T17:45:00Z,27.8620,-80.4450,1020.0,11111222 
FIT,ioos:station:wmo:SIPF1:1,2019-11-22T18:45:00Z,27.8620,-80.4450,1019.0,11111222 
FIT,ioos:station:wmo:SIPF1:1,2019-11-22T19:45:00Z,27.8620,-80.4450,1019.0,11111222 
FIT,ioos:station:wmo:SIPF1:1,2019-11-22T20:30:00Z,27.8620,-80.4450,1019.0,11111222 
FIT,ioos:station:wmo:SIPF1:1,2019-11-22T21:30:00Z,27.8620,-80.4450,1019.0,11111222 
FIT,ioos:station:wmo:SIPF1:1,2019-11-22T22:30:00Z,27.8620,-80.4450,1019.0,11111222 
FIT,ioos:station:wmo:SIPF1:1,2019-11-22T23:30:00Z,27.8620,-80.4450,1019.0,11111222 
FIT,ioos:station:wmo:SIPF1:1,2019-11-23T00:30:00Z,27.8620,-80.4450,1019.0,11111222 
FIT,ioos:station:wmo:SIPF1:1,2019-11-23T01:30:00Z,27.8620,-80.4450,1020.0,11111222 
FIT,ioos:station:wmo:SIPF1:1,2019-11-23T02:30:00Z,27.8620,-80.4450,1020.0,11111222 
FIT,ioos:station:wmo:SIPF1:1,2019-11-23T03:30:00Z,27.8620,-80.4450,1019.0,11111222 
FIT,ioos:station:wmo:SIPF1:1,2019-11-23T04:30:00Z,27.8620,-80.4450,1019.0,11111222 
FIT,ioos:station:wmo:SIPF1:1,2019-11-23T05:30:00Z,27.8620,-80.4450,1019.0,11111222 
FIT,ioos:station:wmo:SIPF1:1,2019-11-23T06:30:00Z,27.8620,-80.4450,1018.0,11111222 
FIT,ioos:station:wmo:SIPF1:1,2019-11-23T07:30:00Z,27.8620,-80.4450,1018.0,11111222 
FIT,ioos:station:wmo:SIPF1:1,2019-11-23T08:30:00Z,27.8620,-80.4450,1018.0,11111222 
FIT,ioos:station:wmo:SIPF1:1,2019-11-23T09:30:00Z,27.8620,-80.4450,1017.0,11111222 
FIT,ioos:station:wmo:SIPF1:1,2019-11-23T10:30:00Z,27.8620,-80.4450,1018.0,11111222 
FIT,ioos:station:wmo:SIPF1:1,2019-11-23T11:30:00Z,27.8620,-80.4450,1018.0,11111222 
FIT,ioos:station:wmo:SIPF1:1,2019-11-23T12:30:00Z,27.8620,-80.4450,1019.0,11111222 
FIT,ioos:station:wmo:SIPF1:1,2019-11-23T13:30:00Z,27.8620,-80.4450,1019.0,11111222 
FIT,ioos:station:wmo:SIPF1:1,2019-11-23T14:30:00Z,27.8620,-80.4450,1019.0,11111222 
FIT,ioos:station:wmo:SIPF1:1,2019-11-23T15:30:00Z,27.8620,-80.4450,1019.0,11111222 
FIT,ioos:station:wmo:SIPF1:1,2019-11-23T16:30:00Z,27.8620,-80.4450,1018.0,11111222 
FIT,ioos:station:wmo:SIPF1:1,2019-11-23T17:30:00Z,27.8620,-80.4450,1017.0,11111222 
FIT,ioos:station:wmo:SIPF1:1,2019-11-23T18:15:00Z,27.8620,-80.4450,1016.0,11111222 
FIT,ioos:station:wmo:SIPF1:1,2019-11-23T19:30:00Z,27.8620,-80.4450,1015.0,11111222 
FIT,ioos:station:wmo:SIPF1:1,2019-11-23T20:30:00Z,27.8620,-80.4450,1015.0,11111222 
FIT,ioos:station:wmo:SIPF1:1,2019-11-23T21:30:00Z,27.8620,-80.4450,1015.0,11111222 
FIT,ioos:station:wmo:SIPF1:1,2019-11-23T22:30:00Z,27.8620,-80.4450,1015.0,11111222 
FIT,ioos:station:wmo:SIPF1:1,2019-11-23T23:30:00Z,27.8620,-80.4450,1015.0,11111222 
FIT,ioos:station:wmo:SIPF1:1,2019-11-24T00:30:00Z,27.8620,-80.4450,1015.0,11111222 
FIT,ioos:station:wmo:SIPF1:1,2019-11-24T01:30:00Z,27.8620,-80.4450,1015.0,11111222 
FIT,ioos:station:wmo:SIPF1:1,2019-11-24T02:30:00Z,27.8620,-80.4450,1015.0,11111222 
FIT,ioos:station:wmo:SIPF1:1,2019-11-24T03:30:00Z,27.8620,-80.4450,1015.0,11111222 
FIT,ioos:station:wmo:SIPF1:1,2019-11-24T04:30:00Z,27.8620,-80.4450,1015.0,11111222 
FIT,ioos:station:wmo:SIPF1:1,2019-11-24T05:30:00Z,27.8620,-80.4450,1014.0,11111222 
FIT,ioos:station:wmo:SIPF1:1,2019-11-24T06:30:00Z,27.8620,-80.4450,1013.0,11111222 
FIT,ioos:station:wmo:SIPF1:1,2019-11-24T07:30:00Z,27.8620,-80.4450,1013.0,11111222 